Jendouba, Tunisia

1:40 AM CET on December 11, 2019 (GMT +0100)
Jendouba

Weather History for DTTN - August, 2019

Change the Weather History Date:

Monday, August 12, 2019

  Actual Average Record
Temperature  
Mean Temperature 88 °F -  
Max Temperature 106 °F 94 °F - ()
Min Temperature 71 °F 64 °F - ()
Cooling Degree Days 24    
Growing Degree Days 38 (Base 50)    
Moisture  
Dew Point 60 °F    
Average Humidity 38    
Maximum Humidity 66    
Minimum Humidity 9    
Precipitation  
Precipitation 0.00 in 0.03 in - ()
Sea Level Pressure  
Sea Level Pressure 29.88 in    
Wind  
Wind Speed 5 mph ()    
Max Wind Speed 17 mph    
Max Gust Speed 30 mph    
Visibility 7.1 miles    
Events      
T = Trace of Precipitation, MM = Missing Value Source: Averaged Metar Reports

Daily Weather History Graph

Daily Weather History Graph

Search for Another Location

Airport or City:

Astronomy

Aug. 12, 2019 Rise Set
Actual Time 5:39 AM CET 7:19 PM CET
Civil Twilight 5:11 AM CET 7:47 PM CET
Nautical Twilight 4:38 AM CET 8:20 PM CET
Astronomical Twilight 4:03 AM CET 8:55 PM CET
Moon 5:32 PM CET (8/12) 2:38 AM CET (8/12)
Length of Visible Light 14h 35m
Length of Day
13h 39m
Waxing Gibbous, 91% of the Moon is Illuminated
Aug 12
Waxing Gibbous
Aug 15
Full
Aug 23
Last Quarter
Aug 30
New
Sep 6
First Quarter

Hourly Weather History & Observations

Time (CET) Temp. Heat Index Dew Point Humidity Pressure Visibility Wind Dir Wind Speed Gust Speed Precip Events Conditions
6:00 AM 71.6 °F - 55.4 °F 57% 29.89 in - Variable 2.3 mph - N/A   Clear
7:00 AM 75 °F - 57 °F 44% 29.91 in 6 mi Calm Calm - -  
7:00 AM 75.2 °F - 57.2 °F 53% 29.92 in - Calm Calm - N/A   Clear
8:00 AM 82.4 °F 82.0 °F 57.2 °F 42% 29.92 in - SE 2.3 mph - N/A   Clear
9:00 AM 86.0 °F 84.9 °F 57.2 °F 37% 29.92 in - SSW 2.3 mph - N/A   Clear
10:00 AM 90 °F - 61 °F 28% 29.90 in 9 mi North 2.3 mph - -  
10:00 AM 89.6 °F 89.5 °F 60.8 °F 38% 29.92 in - North 2.3 mph - N/A   Clear
11:00 AM 95.0 °F 94.4 °F 59.0 °F 30% 29.92 in - ENE 3.5 mph - N/A   Clear
12:00 PM 98.6 °F - 50.0 °F 19% 29.89 in - NE 3.5 mph - N/A   Clear
1:00 PM 101 °F - 47 °F 9% 29.85 in 9 mi NE 4.6 mph - -  
1:00 PM 100.4 °F - 46.4 °F 16% 29.89 in - NE 4.6 mph - N/A   Clear
2:00 PM 104.0 °F - 48.2 °F 15% 29.86 in - Variable 8.1 mph - N/A   Clear
3:00 PM 105.8 °F - 44.6 °F 13% 29.83 in - ENE 12.7 mph - N/A   Clear
4:00 PM 100 °F - 69 °F 27% 29.79 in 9 mi NW 12.7 mph - -  
4:00 PM 100.4 °F 106.3 °F 68.0 °F 35% 29.83 in - NW 12.7 mph - N/A   Clear
5:00 PM 96.8 °F 100.7 °F 66.2 °F 37% 29.83 in - NW 16.1 mph 27.6 mph N/A   Clear
6:00 PM 91.4 °F 95.4 °F 68.0 °F 46% 29.83 in - NNW 17.3 mph 28.8 mph N/A   Clear
7:00 PM 88 °F - 69 °F 44% 29.84 in 9 mi NW 16.1 mph - -  
7:00 PM 87.8 °F 92.6 °F 69.8 °F 55% 29.86 in - NNW 15.0 mph 29.9 mph N/A   Clear
9:00 PM 84.2 °F 86.6 °F 66.2 °F 55% 29.92 in - Variable 5.8 mph - N/A   Clear
10:00 PM 83 °F - 69 °F 53% 29.92 in 5 mi NW 10.4 mph - -  
10:00 PM 82.4 °F 85.4 °F 68.0 °F 62% 29.95 in 5.0 mi NW 10.4 mph - N/A   Unknown
11:00 PM 82.4 °F 86.3 °F 69.8 °F 66% 29.95 in 5.0 mi NW 6.9 mph - N/A   Unknown